TimeEDT,TemperatureF,Dew PointF,Humidity,Sea Level PressureIn,VisibilityMPH,Wind Direction,Wind SpeedMPH,Gust SpeedMPH,PrecipitationIn,Events,Conditions,WindDirDegrees,DateUTC
12:51 AM,48.0,46.0,93,30.06,6.0,West,4.6,-,0.13,Rain,Light Rain,260,2012-10-08 04:51:00
1:24 AM,48.2,44.6,87,30.07,10.0,WNW,4.6,-,0.02,Rain,Light Rain,290,2012-10-08 05:24:00
1:42 AM,48.2,46.4,93,30.07,10.0,NNW,4.6,-,0.02,Rain,Light Rain,340,2012-10-08 05:42:00
1:51 AM,48.0,45.0,89,30.09,10.0,NW,3.5,-,0.02,Rain,Light Rain,310,2012-10-08 05:51:00
2:51 AM,46.9,44.1,90,30.08,10.0,NW,3.5,-,0.02,,Overcast,310,2012-10-08 06:51:00
3:51 AM,44.6,42.8,93,30.08,10.0,Calm,Calm,-,N/A,,Clear,0,2012-10-08 07:51:00
4:51 AM,43.0,42.1,97,30.09,10.0,West,3.5,-,N/A,,Clear,280,2012-10-08 08:51:00
5:51 AM,42.1,41.0,96,30.12,10.0,Calm,Calm,-,N/A,,Clear,0,2012-10-08 09:51:00
6:51 AM,42.1,39.9,92,30.16,10.0,Calm,Calm,-,N/A,,Partly Cloudy,0,2012-10-08 10:51:00
7:16 AM,41.0,39.2,93,30.16,1.2,Calm,Calm,-,N/A,,Clear,0,2012-10-08 11:16:00
7:19 AM,41.0,39.2,93,30.16,10.0,Calm,Calm,-,N/A,,Clear,0,2012-10-08 11:19:00
7:51 AM,44.1,42.1,93,30.17,10.0,Calm,Calm,-,N/A,,Clear,0,2012-10-08 11:51:00
8:51 AM,48.2,41.0,76,30.19,10.0,NNE,3.5,-,N/A,,Clear,20,2012-10-08 12:51:00
9:51 AM,50.0,41.0,71,30.22,10.0,North,5.8,-,N/A,,Scattered Clouds,360,2012-10-08 13:51:00
10:51 AM,52.0,42.1,69,30.22,10.0,West,3.5,-,N/A,,Mostly Cloudy,280,2012-10-08 14:51:00
11:51 AM,52.0,42.1,69,30.23,10.0,Calm,Calm,-,N/A,,Overcast,0,2012-10-08 15:51:00
12:51 PM,53.1,42.1,66,30.24,10.0,WNW,4.6,-,N/A,,Overcast,290,2012-10-08 16:51:00
1:51 PM,55.0,43.0,64,30.24,10.0,Calm,Calm,-,N/A,,Mostly Cloudy,0,2012-10-08 17:51:00
2:00 PM,55.4,42.8,63,30.23,10.0,Variable,3.5,-,N/A,,Overcast,0,2012-10-08 18:00:00
2:40 PM,55.4,44.6,67,30.24,10.0,Variable,3.5,-,N/A,,Overcast,0,2012-10-08 18:40:00
2:51 PM,55.0,44.1,67,30.24,10.0,SE,5.8,-,N/A,,Mostly Cloudy,140,2012-10-08 18:51:00
3:19 PM,55.4,44.6,67,30.24,10.0,SSE,10.4,-,N/A,,Mostly Cloudy,150,2012-10-08 19:19:00
3:27 PM,55.4,44.6,67,30.24,10.0,SSE,10.4,-,N/A,,Mostly Cloudy,150,2012-10-08 19:27:00
3:51 PM,54.0,44.1,69,30.26,10.0,South,10.4,-,N/A,,Mostly Cloudy,190,2012-10-08 19:51:00
4:51 PM,54.0,44.1,69,30.26,10.0,South,10.4,-,N/A,,Overcast,170,2012-10-08 20:51:00
5:51 PM,53.1,44.1,71,30.27,10.0,South,4.6,-,N/A,,Mostly Cloudy,180,2012-10-08 21:51:00
6:51 PM,52.0,44.1,74,30.29,10.0,Calm,Calm,-,N/A,,Clear,0,2012-10-08 22:51:00
7:51 PM,48.2,44.6,87,30.30,10.0,Calm,Calm,-,N/A,,Clear,0,2012-10-08 23:51:00
8:51 PM,50.0,42.8,76,30.31,10.0,WSW,3.5,-,N/A,,Clear,250,2012-10-09 00:51:00
9:51 PM,46.9,43.0,86,30.34,10.0,Calm,Calm,-,N/A,,Clear,0,2012-10-09 01:51:00
10:51 PM,46.9,44.1,90,30.34,10.0,Calm,Calm,-,N/A,,Clear,0,2012-10-09 02:51:00
11:51 PM,45.0,43.0,93,30.34,10.0,Calm,Calm,-,N/A,,Partly Cloudy,0,2012-10-09 03:51:00